Date String (YYYY-MM-DD hh:mm:ss) UTC,Instrument flags,absolute air pressure of the measurement (hPa),sample flow rate (lpm),inlet stack bypass flow (lpm),air temperature of the measurement (°C),ambient temperature measured by the external sensor (°C),aerosol sample conditioner tube jacket temperature (°C),OPC LED temperature (°C),internal box temperature (°C),relative humidity of the measurement (%),span deviation,mass concentration of particles derived from Lorenz-Mie calculation of OPC scattering (μg/m³),mass concentration of particles derived from Lorenz-Mie calculation of OPC scattering (μg/m³),mass concentration of particles derived from Lorenz-Mie calculation of OPC scattering (μg/m³)
DateTimeUTC,F1_M11,P_M11,Q1_M11,Q2_M11,T1_M11,T2_M11,T3_M11,T4_M11,T5_M11,U1_M11,ZSPAN_M11,X0_M11,X2_M11,X1_M11
2024-03-25 21:00:00,SystemResetWarning,0818.1,5.01,000.00,019.4,018.8,000.0,027.8,021.1,12.6,0000.0,0008.79,0007.48,0007.35
2024-03-25 21:01:00,SystemResetWarning,0818.2,5.01,000.00,019.4,018.9,000.0,027.8,021.2,12.7,0000.0,0008.80,0007.49,0007.35
2024-03-25 21:02:00,SystemResetWarning,0818.2,5.00,000.00,019.4,018.9,000.0,027.8,021.2,13.0,0000.0,0008.79,0007.48,0007.35
2024-03-25 21:03:00,SystemResetWarning,0818.2,4.99,000.00,019.4,018.9,000.0,027.8,021.2,12.7,0000.0,0008.82,0007.47,0007.33
2024-03-25 21:04:00,SystemResetWarning,0818.2,5.00,000.00,019.4,018.9,000.0,027.8,021.2,12.7,0000.0,0008.79,0007.44,0007.30
2024-03-25 21:05:00,SystemResetWarning,0818.2,5.00,000.00,019.4,019.0,000.0,027.8,021.2,13.0,0000.0,0008.75,0007.38,0007.25
2024-03-25 21:06:00,SystemResetWarning,0818.2,5.02,000.00,019.5,019.0,000.0,027.9,021.2,13.0,0000.0,0008.71,0007.34,0007.21
2024-03-25 21:07:00,SystemResetWarning,0818.2,4.99,000.00,019.5,019.0,000.0,027.9,021.3,12.9,0000.0,0008.64,0007.30,0007.18
2024-03-25 21:08:00,SystemResetWarning,0818.2,4.99,000.00,019.5,019.0,000.0,027.9,021.3,13.0,0000.0,0008.76,0007.32,0007.19
2024-03-25 21:09:00,SystemResetWarning,0818.2,4.99,000.00,019.5,019.0,000.0,027.9,021.3,13.2,0000.0,0008.98,0007.37,0007.24
2024-03-25 21:10:00,SystemResetWarning,0818.2,5.00,000.00,019.5,019.0,000.0,027.9,021.3,13.2,0000.0,0009.11,0007.44,0007.31
2024-03-25 21:11:00,SystemResetWarning,0818.2,5.01,000.00,019.5,019.0,000.0,027.9,021.3,13.1,0000.0,0009.64,0007.55,0007.40
2024-03-25 21:12:00,SystemResetWarning,0818.2,5.01,000.00,019.5,019.0,000.0,027.9,021.3,13.0,0000.0,0009.92,0007.64,0007.48
2024-03-25 21:13:00,SystemResetWarning,0818.2,5.01,000.00,019.5,018.9,000.0,027.9,021.3,12.9,0000.0,0010.02,0007.75,0007.59
2024-03-25 21:14:00,SystemResetWarning,0818.2,5.00,000.00,019.5,019.0,000.0,027.9,021.3,12.9,0000.0,0010.09,0007.83,0007.67
2024-03-25 21:15:00,SystemResetWarning,0818.2,5.00,000.00,019.5,018.9,000.0,027.9,021.3,12.9,0000.0,0010.19,0007.91,0007.74
2024-03-25 21:16:00,SystemResetWarning,0818.2,5.00,000.00,019.5,018.9,000.0,027.9,021.3,12.8,0000.0,0010.21,0007.96,0007.80
2024-03-25 21:17:00,SystemResetWarning,0818.2,5.00,000.00,019.5,018.9,000.0,028.0,021.3,12.8,0000.0,0010.34,0008.00,0007.83
2024-03-25 21:18:00,SystemResetWarning,0818.2,5.01,000.00,019.5,018.9,000.0,028.0,021.3,12.9,0000.0,0010.51,0008.02,0007.85
2024-03-25 21:19:00,SystemResetWarning,0818.2,5.00,000.00,019.5,019.0,000.0,028.0,021.3,13.2,0000.0,0010.47,0008.03,0007.86
2024-03-25 21:20:00,SystemResetWarning,0818.2,5.00,000.00,019.5,019.0,000.0,028.0,021.3,12.9,0000.0,0010.82,0008.03,0007.86
2024-03-25 21:21:00,SystemResetWarning,0818.2,5.00,000.00,019.6,019.0,000.0,028.0,021.3,13.0,0000.0,0010.79,0008.00,0007.84
2024-03-25 21:22:00,SystemResetWarning,0818.2,4.99,000.00,019.6,019.0,000.0,028.0,021.3,13.0,0000.0,0010.33,0007.95,0007.81
2024-03-25 21:23:00,SystemResetWarning,0818.2,5.01,000.00,019.5,018.9,000.0,028.0,021.3,13.1,0000.0,0010.06,0007.94,0007.81
2024-03-25 21:24:00,SystemResetWarning,0818.2,5.01,000.00,019.5,018.9,000.0,028.0,021.3,13.2,0000.0,0010.10,0007.96,0007.81
2024-03-25 21:25:00,SystemResetWarning,0818.2,5.00,000.00,019.5,018.9,000.0,028.0,021.3,13.3,0000.0,0010.11,0007.96,0007.82
2024-03-25 21:26:00,SystemResetWarning,0818.2,5.01,000.00,019.5,018.9,000.0,028.0,021.3,13.2,0000.0,0010.32,0008.00,0007.86
2024-03-25 21:27:00,SystemResetWarning,0818.2,5.01,000.00,019.5,018.9,000.0,028.0,021.3,13.0,0000.0,0010.37,0008.04,0007.89
2024-03-25 21:28:00,SystemResetWarning,0818.2,5.00,000.00,019.5,018.9,000.0,028.0,021.3,13.1,0000.0,0010.34,0008.09,0007.94
2024-03-25 21:29:00,SystemResetWarning,0818.2,4.99,000.00,019.6,019.0,000.0,028.0,021.3,13.4,0000.0,0010.57,0008.16,0008.00
2024-03-25 21:30:00,SystemResetWarning,0818.2,5.00,000.00,019.6,019.0,000.0,028.0,021.3,13.3,0000.0,0010.90,0008.21,0008.04
2024-03-25 21:31:00,SystemResetWarning,0818.2,4.99,000.00,019.6,019.0,000.0,028.0,021.3,13.0,0000.0,0010.48,0008.25,0008.06
2024-03-25 21:32:00,SystemResetWarning,0818.3,5.03,000.00,019.6,018.9,000.0,028.0,021.3,12.9,0000.0,0010.35,0008.27,0008.08
2024-03-25 21:33:00,SystemResetWarning,0818.3,4.99,000.00,019.6,018.9,000.0,028.0,021.3,13.0,0000.0,0010.42,0008.29,0008.10
2024-03-25 21:34:00,SystemResetWarning,0818.2,4.99,000.00,019.6,018.9,000.0,028.0,021.3,12.9,0000.0,0010.48,0008.31,0008.10
2024-03-25 21:35:00,SystemResetWarning,0818.2,4.99,000.00,019.6,018.9,000.0,028.0,021.3,13.0,0000.0,0010.42,0008.26,0008.07
2024-03-25 21:36:00,SystemResetWarning,0818.2,5.00,000.00,019.6,018.9,000.0,028.0,021.3,13.1,0000.0,0010.36,0008.23,0008.04
2024-03-25 21:37:00,SystemResetWarning,0818.2,5.00,000.00,019.6,018.9,000.0,028.0,021.3,13.1,0000.0,0010.23,0008.21,0008.03
2024-03-25 21:38:00,SystemResetWarning,0818.2,5.00,000.00,019.6,018.9,000.0,028.0,021.3,13.1,0000.0,0010.14,0008.20,0008.02
2024-03-25 21:39:00,SystemResetWarning,0818.2,5.00,000.00,019.6,018.9,000.0,028.0,021.3,13.2,0000.0,0010.16,0008.20,0008.02
2024-03-25 21:40:00,SystemResetWarning,0818.2,5.00,000.00,019.6,018.9,000.0,028.1,021.3,13.3,0000.0,0010.03,0008.20,0008.01
2024-03-25 21:41:00,SystemResetWarning,0818.2,5.00,000.00,019.6,018.9,000.0,028.1,021.3,13.4,0000.0,0009.54,0008.20,0008.02
2024-03-25 21:42:00,SystemResetWarning,0818.2,5.01,000.00,019.6,018.8,000.0,028.1,021.3,13.6,0000.0,0009.50,0008.20,0008.03
2024-03-25 21:43:00,SystemResetWarning,0818.2,5.00,000.00,019.6,018.8,000.0,028.1,021.3,13.3,0000.0,0009.50,0008.22,0008.06
2024-03-25 21:44:00,SystemResetWarning,0818.2,4.99,000.00,019.5,018.7,000.0,028.1,021.3,13.2,0000.0,0009.57,0008.25,0008.06
2024-03-25 21:45:00,SystemResetWarning,0818.2,4.99,000.00,019.5,018.8,000.0,028.0,021.3,13.2,0000.0,0009.56,0008.25,0008.07
2024-03-25 21:46:00,SystemResetWarning,0818.2,5.00,000.00,019.5,018.8,000.0,028.0,021.3,13.1,0000.0,0009.62,0008.29,0008.11
2024-03-25 21:47:00,SystemResetWarning,0818.2,5.02,000.00,019.5,018.8,000.0,028.0,021.3,13.0,0000.0,0010.14,0008.32,0008.13
2024-03-25 21:48:00,SystemResetWarning,0818.2,5.00,000.00,019.5,018.8,000.0,028.0,021.3,13.0,0000.0,0010.71,0008.35,0008.13
2024-03-25 21:49:00,SystemResetWarning,0818.2,5.00,000.00,019.5,018.9,000.0,028.0,021.3,13.1,0000.0,0010.63,0008.33,0008.14
2024-03-25 21:50:00,SystemResetWarning,0818.2,4.99,000.00,019.5,018.9,000.0,028.0,021.3,13.2,0000.0,0010.62,0008.33,0008.13
2024-03-25 21:51:00,SystemResetWarning,0818.3,4.99,000.00,019.6,018.9,000.0,028.1,021.3,13.1,0000.0,0010.63,0008.32,0008.13
2024-03-25 21:52:00,SystemResetWarning,0818.2,5.00,000.00,019.6,018.9,000.0,028.1,021.3,12.9,0000.0,0010.58,0008.28,0008.09
2024-03-25 21:53:00,SystemResetWarning,0818.3,5.00,000.00,019.6,018.9,000.0,028.1,021.3,13.0,0000.0,0010.55,0008.23,0008.04
2024-03-25 21:54:00,SystemResetWarning,0818.2,5.00,000.00,019.6,018.9,000.0,028.1,021.3,12.6,0000.0,0010.48,0008.16,0007.98
2024-03-25 21:55:00,SystemResetWarning,0818.2,5.00,000.00,019.6,018.9,000.0,028.1,021.3,12.9,0000.0,0010.42,0008.11,0007.94
2024-03-25 21:56:00,SystemResetWarning,0818.2,5.00,000.00,019.6,018.9,000.0,028.1,021.3,12.9,0000.0,0010.34,0008.07,0007.90
2024-03-25 21:57:00,SystemResetWarning,0818.3,5.00,000.00,019.6,018.9,000.0,028.1,021.3,12.7,0000.0,0010.28,0008.02,0007.85
2024-03-25 21:58:00,SystemResetWarning,0818.2,5.00,000.00,019.6,018.9,000.0,028.1,021.3,12.7,0000.0,0010.03,0007.97,0007.80
2024-03-25 21:59:00,SystemResetWarning,0818.3,5.00,000.00,019.6,018.9,000.0,028.1,021.3,12.6,0000.0,0009.35,0007.90,0007.74
